Location: lozzo di cadore
(46.4899°N, 12.4508°E)
Time: 13:42:14
(UTC+02:00)

Envisat - Pass Details

Date: 01 May 2025
Orbit: 761 x 763 km, 98.3° (Epoch: 14 May)

Event Time Altitude Azimuth Distance (km) Brightness Sun altitude
Rises 05:09:36 0° 5° (N) 3,234 6.8 -7.9°
Reaches altitude 10° 05:12:08 10° 355° (N) 2,304 5.9 -7.5°
Maximum altitude 05:16:31 31° 295° (WNW) 1,331 4.0 -6.9°
Drops below altitude 10° 05:20:53 10° 235° (SW) 2,290 4.8 -6.2°
Enters shadow 05:21:37 - 231° (SW) 2,547 5.0 -6.1°
